Date String (YYYY-MM-DD hh:mm:ss) UTC,Instrument flags,absolute air pressure of the measurement (hPa),sample flow rate (lpm),inlet stack bypass flow (lpm),air temperature of the measurement (°C),ambient temperature measured by the external sensor (°C),aerosol sample conditioner tube jacket temperature (°C),OPC LED temperature (°C),internal box temperature (°C),relative humidity of the measurement (%),span deviation,mass concentration of particles derived from Lorenz-Mie calculation of OPC scattering (μg/m³),mass concentration of particles derived from Lorenz-Mie calculation of OPC scattering (μg/m³),mass concentration of particles derived from Lorenz-Mie calculation of OPC scattering (μg/m³)
DateTimeUTC,F1_M11,P_M11,Q1_M11,Q2_M11,T1_M11,T2_M11,T3_M11,T4_M11,T5_M11,U1_M11,ZSPAN_M11,X2_M11,X0_M11,X1_M11
2024-02-05 01:00:00,SystemResetWarning,0830.6,5.00,000.00,022.0,021.3,000.0,030.5,023.8,16.8,0000.5,0010.13,0013.00,0010.03
2024-02-05 01:01:00,SystemResetWarning,0830.6,5.00,000.00,022.0,021.2,000.0,030.5,023.7,16.8,0000.0,0009.64,0012.40,0009.55
2024-02-05 01:02:00,SystemResetWarning,0830.6,5.00,000.00,022.0,021.2,000.0,030.5,023.6,16.9,0000.0,0009.34,0011.99,0009.26
2024-02-05 01:03:00,SystemResetWarning,0830.6,5.00,000.00,021.9,021.1,000.0,030.5,023.5,16.9,0000.0,0009.18,0011.76,0009.11
2024-02-05 01:04:00,SystemResetWarning,0830.5,5.01,000.00,021.9,021.0,000.0,030.4,023.5,17.0,0000.0,0008.99,0010.77,0008.92
2024-02-05 01:05:00,SystemResetWarning,0830.5,5.00,000.00,021.8,020.9,000.0,030.4,023.4,17.2,0000.0,0008.83,0010.46,0008.75
2024-02-05 01:06:00,SystemResetWarning,0830.8,5.00,000.00,021.8,020.9,000.0,030.4,023.3,17.4,0000.0,0008.79,0010.39,0008.71
2024-02-05 01:07:00,SystemResetWarning,0830.6,5.00,000.00,021.7,020.9,000.0,030.3,023.3,17.7,0000.0,0008.86,0010.49,0008.77
2024-02-05 01:08:00,SystemResetWarning,0830.6,5.00,000.00,021.7,020.9,000.0,030.3,023.3,17.9,0000.0,0009.02,0010.63,0008.94
2024-02-05 01:09:00,SystemResetWarning,0830.6,5.00,000.00,021.7,020.9,000.0,030.3,023.3,18.2,0000.9,0009.26,0010.91,0009.16
2024-02-05 01:10:00,SystemResetWarning,0830.6,5.00,000.00,021.7,020.9,000.0,030.3,023.3,18.5,0000.4,0009.70,0011.44,0009.56
2024-02-05 01:11:00,SystemResetWarning,0830.6,5.00,000.00,021.6,020.9,000.0,030.2,023.3,18.7,0000.7,0010.16,0012.32,0009.97
2024-02-05 01:12:00,SystemResetWarning,0830.6,5.00,000.00,021.6,020.9,000.0,030.2,023.4,18.9,0000.7,0010.80,0013.18,0010.58
2024-02-05 01:13:00,SystemResetWarning,0830.6,5.00,000.00,021.6,020.9,000.0,030.2,023.4,19.2,0000.6,0011.50,0014.05,0011.25
2024-02-05 01:14:00,SystemResetWarning,0830.7,4.99,000.00,021.6,020.9,000.0,030.2,023.4,19.4,0000.7,0012.18,0014.93,0011.89
2024-02-05 01:15:00,SystemResetWarning,0830.7,5.00,000.00,021.6,020.9,000.0,030.2,023.4,19.5,0000.8,0012.89,0015.79,0012.57
2024-02-05 01:16:00,SystemResetWarning,0830.7,4.99,000.00,021.6,020.9,000.0,030.2,023.4,19.7,0000.8,0013.37,0016.35,0013.03
2024-02-05 01:17:00,SystemResetWarning,0830.7,5.01,000.00,021.6,020.9,000.0,030.1,023.4,19.8,0000.8,0013.87,0017.02,0013.50
2024-02-05 01:18:00,SystemResetWarning,0830.7,5.01,000.00,021.6,020.9,000.0,030.1,023.4,19.8,0000.7,0014.42,0017.79,0014.00
2024-02-05 01:19:00,SystemResetWarning,0830.7,5.00,000.00,021.6,020.9,000.0,030.1,023.4,19.9,0000.8,0014.84,0018.48,0014.40
2024-02-05 01:20:00,SystemResetWarning,0830.7,5.01,000.00,021.6,020.9,000.0,030.1,023.4,20.0,0001.0,0015.23,0019.01,0014.77
2024-02-05 01:21:00,SystemResetWarning,0830.7,4.99,000.00,021.6,020.9,000.0,030.1,023.4,20.0,0001.1,0015.42,0019.33,0014.96
2024-02-05 01:22:00,SystemResetWarning,0830.7,5.00,000.00,021.6,020.9,000.0,030.1,023.4,20.1,0001.2,0015.44,0019.77,0014.99
2024-02-05 01:23:00,SystemResetWarning,0830.7,5.00,000.00,021.6,020.9,000.0,030.1,023.4,20.1,0001.3,0015.40,0020.32,0014.96
2024-02-05 01:24:00,SystemResetWarning,0830.7,5.01,000.00,021.6,020.9,000.0,030.1,023.4,20.2,0001.3,0015.26,0020.27,0014.79
2024-02-05 01:25:00,SystemResetWarning,0830.7,5.00,000.00,021.6,020.9,000.0,030.1,023.3,20.3,0001.4,0015.09,0020.54,0014.60
2024-02-05 01:26:00,SystemResetWarning,0830.7,4.99,000.00,021.6,020.9,000.0,030.1,023.3,20.3,0001.2,0014.89,0020.62,0014.42
2024-02-05 01:27:00,SystemResetWarning,0830.7,5.00,000.00,021.6,020.9,000.0,030.1,023.3,20.4,0001.3,0014.79,0021.10,0014.28
2024-02-05 01:28:00,SystemResetWarning,0830.7,5.00,000.00,021.6,020.9,000.0,030.1,023.3,20.4,0001.3,0014.74,0021.13,0014.22
2024-02-05 01:29:00,SystemResetWarning,0830.7,5.00,000.00,021.6,020.9,000.0,030.0,023.3,20.4,0001.3,0014.65,0021.02,0014.14
2024-02-05 01:30:00,SystemResetWarning,0830.7,5.00,000.00,021.5,020.9,000.0,030.0,023.3,20.4,0001.4,0014.60,0021.25,0014.05
2024-02-05 01:31:00,SystemResetWarning,0830.7,5.00,000.00,021.5,020.9,000.0,030.0,023.3,20.5,0001.2,0014.57,0021.36,0013.99
2024-02-05 01:32:00,SystemResetWarning,0830.7,5.00,000.00,021.5,020.9,000.0,030.0,023.3,20.5,0001.2,0014.53,0021.29,0013.96
2024-02-05 01:33:00,SystemResetWarning,0830.7,5.01,000.00,021.5,020.9,000.0,030.0,023.3,20.5,0001.1,0014.53,0020.97,0013.95
2024-02-05 01:34:00,SystemResetWarning,0830.8,4.99,000.00,021.5,020.8,000.0,030.0,023.3,20.4,0001.1,0014.45,0019.90,0013.87
2024-02-05 01:35:00,SystemResetWarning,0830.8,4.99,000.00,021.5,020.8,000.0,030.0,023.3,20.3,0001.2,0014.35,0019.87,0013.75
2024-02-05 01:36:00,SystemResetWarning,0830.8,4.99,000.00,021.5,020.8,000.0,030.0,023.3,20.3,0001.1,0014.27,0019.44,0013.69
2024-02-05 01:37:00,SystemResetWarning,0830.8,5.01,000.00,021.5,020.8,000.0,030.0,023.3,20.2,0000.8,0014.05,0019.34,0013.48
2024-02-05 01:38:00,SystemResetWarning,0830.8,5.01,000.00,021.5,020.8,000.0,030.0,023.3,20.1,0000.7,0013.52,0018.22,0012.98
2024-02-05 01:39:00,SystemResetWarning,0830.9,5.00,000.00,021.5,020.8,000.0,030.0,023.3,20.1,0000.8,0013.04,0017.75,0012.51
2024-02-05 01:40:00,SystemResetWarning,0830.8,4.99,000.00,021.5,020.8,000.0,030.0,023.2,20.0,0000.7,0012.69,0017.86,0012.15
2024-02-05 01:41:00,SystemResetWarning,0830.9,5.00,000.00,021.5,020.8,000.0,030.0,023.2,19.9,0000.6,0012.29,0016.99,0011.78
2024-02-05 01:42:00,SystemResetWarning,0830.9,5.00,000.00,021.5,020.8,000.0,029.9,023.2,19.9,0000.7,0011.80,0016.33,0011.32
2024-02-05 01:43:00,SystemResetWarning,0830.9,5.00,000.00,021.4,020.8,000.0,029.9,023.2,19.9,0000.5,0011.28,0015.73,0010.81
2024-02-05 01:44:00,SystemResetWarning,0830.9,5.00,000.00,021.4,020.8,000.0,029.9,023.2,19.8,0000.3,0010.71,0015.08,0010.27
2024-02-05 01:45:00,SystemResetWarning,0830.9,4.99,000.00,021.4,020.8,000.0,029.9,023.2,19.8,0000.2,0010.23,0014.52,0009.82
2024-02-05 01:46:00,SystemResetWarning,0831.0,5.00,000.00,021.4,020.8,000.0,029.9,023.2,19.8,-000.1,0009.82,0013.97,0009.44
2024-02-05 01:47:00,SystemResetWarning,0831.0,5.00,000.00,021.4,020.8,000.0,029.9,023.2,19.8,-000.2,0009.41,0013.47,0009.05
2024-02-05 01:48:00,SystemResetWarning,0831.1,5.00,000.00,021.4,020.8,000.0,029.9,023.2,19.8,0000.2,0009.22,0012.89,0008.85
2024-02-05 01:49:00,SystemResetWarning,0831.1,5.00,000.00,021.4,020.8,000.0,029.9,023.2,19.8,0000.5,0009.40,0013.05,0009.04
2024-02-05 01:50:00,SystemResetWarning,0831.1,5.00,000.00,021.4,020.8,000.0,029.9,023.2,19.8,0000.3,0009.50,0013.03,0009.14
2024-02-05 01:51:00,SystemResetWarning,0831.1,5.00,000.00,021.4,020.8,000.0,029.9,023.2,19.8,0000.5,0009.49,0012.53,0009.16
2024-02-05 01:52:00,SystemResetWarning,0831.1,5.00,000.00,021.4,020.8,000.0,029.9,023.2,19.8,0000.6,0009.51,0012.59,0009.19
2024-02-05 01:53:00,SystemResetWarning,0831.1,5.00,000.00,021.4,020.8,000.0,029.9,023.2,19.8,0000.8,0009.64,0013.07,0009.31
2024-02-05 01:54:00,SystemResetWarning,0831.1,5.00,000.00,021.4,020.8,000.0,029.9,023.2,19.8,0000.9,0009.87,0013.61,0009.51
2024-02-05 01:55:00,SystemResetWarning,0831.1,5.00,000.00,021.4,020.7,000.0,029.9,023.2,19.7,0001.2,0010.09,0014.05,0009.71
2024-02-05 01:56:00,SystemResetWarning,0831.1,5.00,000.00,021.4,020.7,000.0,029.9,023.2,19.7,0001.3,0010.22,0014.32,0009.83
2024-02-05 01:57:00,SystemResetWarning,0831.1,5.00,000.00,021.4,020.7,000.0,029.9,023.2,19.7,0001.5,0010.28,0014.41,0009.89
2024-02-05 01:58:00,SystemResetWarning,0831.1,5.00,000.00,021.4,020.7,000.0,029.9,023.2,19.8,0001.7,0010.38,0014.55,0009.98
2024-02-05 01:59:00,SystemResetWarning,0831.1,5.00,000.00,021.4,020.7,000.0,029.8,023.1,19.8,0001.9,0010.42,0014.65,0010.00
